Wind_Speed
25 26 28 29 30 31 32 33 34 34 35 36 36 36 36 36 37 37 38 39 40 40 42 43 44 45 46 46 46 47 47 48 48 49 49 49 49 49 49 50 50 49 49 50
25 26 27 28 28 29 30 31 33 33 34 34 34 35 35 36 37 38 38 39 40 41 41 42 44 45 46 47 47 48 48 48 48 49 49 50 50 50 50 50 51 51 51 50
24 26 27 28 28 29 29 30 31 33 34 34 35 35 35 36 36 37 38 39 39 40 41 42 43 44 45 46 47 48 48 48 49 50 50 50 50 50 50 51 51 51 50 50
23 24 26 27 28 29 30 30 32 32 33 34 34 35 35 36 36 36 37 38 39 39 41 42 43 43 44 45 45 46 47 47 48 49 50 50 50 51 51 52 51 51 51 50
23 24 25 25 26 28 28 28 29 31 32 34 35 35 35 36 37 37 37 37 38 39 40 41 42 42 43 43 44 45 47 47 48 49 50 50 51 51 51 51 51 51 51 51
23 25 25 24 25 26 28 28 28 29 30 32 33 35 34 34 35 36 37 37 37 38 40 41 42 42 42 43 44 45 46 47 48 48 48 48 49 49 49 50 50 51 51 51
22 23 24 24 25 26 27 27 28 28 29 30 32 32 33 34 35 36 36 37 38 39 40 41 41 41 42 43 44 45 46 47 47 48 48 48 48 48 48 49 50 51 51 51
21 21 22 24 25 26 26 26 26 27 28 29 31 32 32 34 34 36 36 37 38 39 41 42 42 42 42 43 44 45 46 47 47 47 47 47 47 47 48 48 49 49 50 51
21 21 22 23 24 25 26 26 27 27 27 28 29 30 32 33 34 35 36 37 38 39 40 42 42 42 42 43 44 45 45 46 46 46 47 47 47 47 47 47 48 49 49 50
20 21 22 23 24 25 26 26 26 27 28 29 29 30 30 31 33 34 35 36 36 37 39 41 42 42 43 43 43 43 44 45 46 46 46 46 46 47 47 47 47 48 48 48
19 21 22 23 24 25 26 26 26 27 28 28 30 30 31 32 33 34 36 37 37 38 39 40 42 43 44 44 44 44 44 45 45 45 46 46 47 47 47 47 47 47 47 47
19 20 21 22 23 24 25 26 27 27 28 28 29 30 31 32 33 34 36 37 38 39 39 40 41 42 43 44 44 44 44 44 45 46 46 46 46 46 46 46 46 46 46 47
19 20 21 22 23 24 25 26 26 27 28 29 30 30 31 31 32 33 34 36 37 39 40 40 40 41 42 43 43 44 44 44 45 45 46 46 46 46 46 46 46 46 47 47
18 19 20 21 22 24 24 25 26 26 27 28 29 30 30 31 32 32 34 34 35 37 38 39 39 40 41 41 42 43 43 43 44 44 44 45 45 45 45 45 45 46 46 47
18 19 20 20 21 23 24 24 25 26 26 27 28 28 29 29 30 31 32 33 34 34 35 36 36 37 38 39 40 40 41 41 41 42 42 43 44 44 44 44 44 44 44 44
19 19 20 21 22 22 23 24 24 25 26 27 28 28 29 29 30 31 32 32 32 33 33 33 34 35 35 36 36 37 37 38 38 39 40 41 42 42 42 42 42 41 41 41
19 20 20 21 22 22 22 23 23 25 26 27 28 29 30 30 30 30 31 31 31 32 33 33 33 33 33 33 34 35 35 36 36 37 38 38 38 39 39 39 38 38 38 38
18 19 19 20 21 21 22 22 23 24 25 27 27 28 29 30 30 30 30 30 30 30 30 30 30 31 31 32 32 33 33 34 34 35 35 35 34 34 34 34 34 34 34 35
17 17 18 19 20 21 21 21 22 23 24 25 26 27 28 28 29 29 29 29 29 29 29 29 28 28 29 29 30 30 31 31 32 32 32 31 31 31 31 32 32 32 31 31
17 16 17 18 19 20 21 22 22 22 23 23 24 25 25 26 27 27 27 27 27 27 27 28 28 27 28 28 28 28 29 29 30 29 29 29 29 29 29 29 29 29 29 28
17 17 16 17 19 20 21 22 22 22 23 23 23 23 24 24 24 24 25 25 25 25 25 26 26 27 27 27 27 27 27 27 27 27 27 27 27 27 27 26 26 26 26 26
18 17 17 17 18 19 20 21 21 22 22 22 22 22 22 22 23 23 23 23 23 23 24 25 25 25 26 26 26 26 26 26 25 25 25 25 25 24 24 24 24 24 24 24
18 18 17 17 17 18 18 18 18 19 19 20 20 20 20 21 21 21 21 21 22 22 23 23 24 25 25 25 25 25 24 24 24 24 23 23 23 23 23 23 23 22 22 22
17 17 17 17 17 17 17 17 17 17 17 18 18 19 19 18 19 19 19 20 21 21 22 23 23 23 23 23 23 23 22 22 22 21 22 22 22 23 23 23 23 23 23 23
17 17 17 17 17 17 17 17 17 16 17 17 17 17 16 17 17 17 18 19 20 20 21 21 21 21 21 21 21 20 20 20 20 20 20 20 21 21 22 22 22 22 22 22
18 17 18 18 17 17 17 16 16 16 16 16 16 16 16 16 17 18 18 19 19 19 20 20 20 20 19 19 19 19 19 19 19 19 19 19 19 19 20 21 21 21 21 21
19 18 18 17 17 16 16 16 16 16 15 16 16 16 16 16 17 17 18 18 18 18 19 19 18 18 18 18 18 18 18 19 18 18 18 18 18 19 19 20 20 20 20 20
Wind_Direction
233 234 235 235 234 235 237 238 238 237 239 239 239 239 238 237 237 237 237 238 239 239 239 239 239 240 240 241 243 245 246 248 251 252 254 256 258 259 262 264 265 267 269 269
235 235 236 235 233 234 236 238 238 236 236 237 239 240 239 238 237 238 239 239 240 241 240 240 240 240 240 242 244 246 247 249 251 253 255 257 259 261 263 264 266 267 268 269
241 240 240 237 234 235 235 237 238 238 239 238 239 239 239 239 238 239 239 240 241 241 241 242 242 241 242 244 245 247 249 251 253 254 256 258 260 262 263 264 266 267 268 269
244 243 243 241 239 239 238 239 238 239 239 240 239 239 240 240 240 241 240 241 242 243 243 242 242 242 244 246 247 248 250 252 254 256 257 259 261 262 264 264 265 267 268 269
246 245 245 243 241 240 240 240 240 240 240 241 241 241 242 242 241 241 241 243 244 245 244 243 242 244 247 248 248 249 251 253 255 257 259 260 262 263 264 264 265 266 268 269
248 248 247 243 243 242 242 242 240 241 240 241 242 243 243 244 244 244 243 244 245 245 245 245 245 247 248 249 250 251 253 255 256 258 260 262 263 263 264 265 266 267 268 269
247 247 246 243 244 243 243 243 243 243 243 243 243 245 245 245 246 245 245 246 247 246 246 246 247 248 250 250 251 253 255 257 258 260 261 262 264 265 265 266 267 268 269 270
246 245 243 243 243 243 244 243 244 244 243 244 245 246 247 246 246 246 246 247 248 248 247 246 248 250 251 251 252 254 256 258 260 261 261 262 264 265 266 266 267 268 269 270
248 246 245 244 244 245 244 244 245 246 246 247 247 248 248 248 247 247 248 248 248 249 249 248 249 251 253 254 254 255 256 258 259 260 262 263 263 264 265 267 268 269 270 271
251 248 247 246 246 245 245 246 247 249 250 250 250 250 250 249 249 249 249 249 249 250 250 250 251 252 254 255 256 257 258 259 260 261 262 262 263 264 266 267 269 270 271 272
254 252 251 249 249 248 248 247 248 250 251 251 252 252 252 250 250 250 251 251 251 252 253 254 255 255 256 257 258 259 259 260 260 261 261 263 264 266 267 269 270 271 272 273
257 255 253 252 251 250 250 250 251 251 251 253 254 254 254 254 253 253 253 253 253 254 255 256 257 259 260 260 260 261 262 262 262 262 263 264 265 266 268 269 270 271 271 273
261 258 256 254 253 252 252 252 252 252 253 253 254 255 255 255 256 256 255 256 257 257 258 259 259 260 261 262 262 263 264 264 264 264 265 265 266 267 268 269 271 272 273 274
264 261 259 258 256 254 253 253 253 255 255 255 254 255 255 256 257 257 257 258 259 259 260 260 261 261 262 262 262 264 265 265 265 266 266 267 267 268 269 270 271 272 274 275
267 263 261 260 260 259 257 256 256 256 257 257 258 258 258 258 258 258 259 259 260 260 261 261 261 261 262 263 263 264 264 265 265 265 265 266 267 268 269 270 272 272 273 274
270 266 263 262 261 261 261 260 259 258 258 260 261 260 260 261 261 261 261 261 260 261 261 262 262 263 263 263 263 263 263 264 265 265 266 267 268 269 270 271 271 272 272 272
274 270 266 264 262 261 262 263 262 261 261 262 263 264 264 263 264 265 264 263 262 262 263 263 263 263 263 263 263 263 263 264 265 267 267 268 268 269 269 269 270 270 271 272
281 275 270 268 265 263 263 265 266 265 266 266 266 266 266 266 265 265 265 265 265 264 264 263 263 263 263 264 264 264 265 265 266 266 267 268 267 267 267 268 269 269 270 271
288 280 272 268 267 266 267 269 270 270 269 269 268 267 266 266 266 267 267 266 265 264 263 263 264 265 265 265 265 266 266 265 265 266 267 266 266 267 267 268 268 269 270 271
291 285 276 271 270 269 268 271 273 273 272 271 271 271 269 267 267 267 266 266 265 264 263 263 264 265 265 266 267 268 267 267 267 266 264 264 265 267 268 267 267 268 270 271
292 288 281 277 275 273 271 272 274 275 275 273 273 272 271 269 267 266 265 265 265 265 263 263 264 265 266 267 268 268 268 268 266 264 263 264 264 265 265 265 265 267 268 270
291 287 283 282 281 278 275 273 274 274 274 273 273 272 271 269 267 266 265 264 264 264 265 266 265 265 266 267 268 268 268 267 265 264 263 264 263 263 263 264 266 267 268 269
292 288 285 285 285 283 279 276 276 276 275 274 274 273 271 270 267 264 263 264 265 267 267 267 266 267 269 269 269 268 267 265 264 263 262 262 262 261 261 264 265 267 269 271
294 291 288 287 286 282 279 278 277 277 277 277 276 275 273 271 268 265 265 266 268 269 269 269 269 268 269 269 267 265 263 262 261 261 261 262 262 262 262 264 265 267 268 270
295 291 289 287 284 281 278 276 277 278 279 279 278 276 274 272 269 268 269 270 271 271 270 270 269 269 269 268 265 262 260 259 260 261 262 263 264 263 263 263 265 267 268 270
297 294 291 288 284 281 278 275 275 277 280 280 279 277 276 274 273 272 272 273 273 273 272 272 271 270 269 267 264 261 260 260 261 262 263 265 265 264 264 264 266 268 270 271
294 294 293 290 286 281 279 276 274 275 277 278 278 278 277 276 275 274 275 276 276 275 274 273 272 270 268 266 264 262 260 260 262 263 264 265 265 265 266 267 268 269 270 271
Height
5561 5563 5566 5569 5572 5575 5578 5582 5585 5589 5592 5595 5598 5601 5604 5608 5611 5614 5618 5622 5625 5629 5632 5636 5639 5643 5647 5651 5654 5657 5660 5663 5665 5667 5669 5671 5672 5673 5674 5675 5675 5675 5675 5674
5555 5557 5559 5562 5565 5567 5571 5574 5577 5580 5584 5586 5589 5592 5595 5598 5602 5605 5609 5612 5616 5619 5622 5625 5629 5632 5636 5640 5643 5646 5649 5652 5654 5655 5657 5659 5660 5661 5662 5662 5662 5662 5662 5662
5550 5552 5553 5556 5559 5561 5564 5566 5569 5572 5576 5578 5580 5583 5586 5589 5592 5596 5599 5603 5606 5609 5612 5615 5618 5622 5626 5629 5632 5635 5638 5640 5642 5643 5645 5646 5647 5648 5649 5649 5650 5650 5649 5649
5543 5545 5547 5552 5552 5554 5556 5559 5561 5564 5567 5569 5572 5575 5578 5581 5584 5587 5590 5593 5596 5599 5602 5605 5608 5612 5615 5618 5620 5623 5626 5628 5629 5631 5632 5634 5635 5636 5636 5637 5637 5637 5637 5636
5537 5538 5540 5544 5545 5547 5549 5552 5554 5557 5559 5561 5564 5567 5570 5572 5575 5578 5580 5583 5586 5589 5592 5595 5598 5601 5604 5607 5609 5611 5614 5615 5617 5618 5620 5621 5622 5623 5623 5623 5624 5624 5624 5624
5531 5532 5534 5538 5539 5540 5543 5545 5547 5549 5552 5554 5556 5559 5562 5564 5566 5568 5571 5574 5576 5579 5582 5585 5588 5591 5593 5595 5597 5600 5602 5603 5604 5606 5607 5608 5609 5609 5610 5610 5611 5611 5611 5610
5525 5526 5528 5531 5532 5534 5538 5540 5540 5542 5544 5546 5548 5551 5553 5555 5557 5559 5562 5564 5567 5569 5572 5574 5577 5579 5582 5584 5586 5588 5589 5591 5592 5593 5594 5595 5596 5596 5597 5597 5597 5598 5598 5597
5519 5520 5524 5524 5525 5528 5530 5531 5533 5534 5536 5538 5540 5542 5544 5546 5548 5550 5552 5554 5556 5559 5561 5563 5565 5568 5570 5572 5574 5576 5577 5579 5580 5581 5582 5583 5583 5583 5584 5584 5584 5584 5584 5583
5514 5517 5516 5517 5518 5520 5522 5524 5525 5527 5529 5530 5532 5533 5535 5537 5539 5540 5542 5544 5546 5548 5550 5552 5554 5556 5558 5560 5562 5564 5565 5566 5568 5569 5570 5570 5571 5571 5571 5571 5571 5571 5571 5570
5507 5508 5509 5510 5511 5513 5514 5516 5518 5519 5521 5522 5524 5525 5526 5528 5529 5531 5532 5534 5536 5538 5539 5541 5542 5544 5546 5548 5550 5551 5552 5554 5555 5556 5557 5558 5558 5558 5558 5558 5558 5558 5557 5557
5501 5502 5502 5503 5504 5505 5507 5508 5510 5511 5512 5514 5515 5516 5517 5519 5520 5521 5523 5524 5526 5527 5529 5530 5531 5533 5534 5536 5537 5539 5540 5541 5542 5543 5544 5545 5545 5545 5545 5545 5545 5544 5544 5543
5496 5496 5496 5497 5497 5498 5499 5500 5501 5503 5504 5505 5506 5507 5508 5509 5510 5511 5512 5514 5515 5516 5518 5519 5520 5521 5522 5523 5525 5526 5527 5528 5529 5530 5531 5531 5532 5532 5531 5532 5531 5530 5530 5529
5489 5488 5489 5489 5490 5490 5491 5492 5493 5495 5496 5497 5497 5498 5499 5499 5500 5501 5502 5503 5504 5505 5506 5507 5508 5509 5510 5511 5512 5513 5514 5515 5516 5517 5517 5518 5518 5518 5518 5518 5517 5517 5516 5515
5482 5482 5482 5482 5482 5483 5484 5485 5485 5486 5487 5488 5489 5489 5490 5490 5491 5491 5492 5493 5494 5494 5495 5495 5496 5497 5498 5499 5500 5501 5502 5502 5503 5503 5504 5504 5505 5505 5505 5505 5505 5503 5502 5501
5475 5475 5475 5475 5475 5476 5476 5477 5478 5478 5479 5479 5480 5480 5481 5481 5481 5482 5482 5482 5483 5484 5484 5484 5485 5486 5486 5487 5488 5489 5489 5490 5490 5490 5491 5491 5491 5492 5492 5492 5491 5490 5489 5488
5468 5468 5468 5468 5468 5468 5469 5469 5470 5470 5471 5471 5471 5472 5472 5472 5472 5472 5472 5472 5473 5473 5474 5474 5474 5475 5475 5476 5476 5477 5477 5477 5478 5478 5478 5478 5478 5478 5478 5478 5478 5477 5476 5475
5462 5461 5461 5461 5461 5461 5461 5461 5462 5462 5462 5463 5463 5463 5463 5463 5463 5463 5463 5463 5463 5464 5464 5464 5464 5464 5465 5465 5465 5466 5466 5466 5466 5466 5466 5466 5466 5466 5466 5465 5465 5465 5464 5463
5455 5454 5454 5454 5454 5454 5454 5454 5454 5454 5454 5454 5454 5454 5454 5454 5454 5454 5453 5453 5454 5454 5454 5454 5454 5454 5454 5455 5455 5455 5455 5455 5455 5455 5454 5454 5454 5454 5454 5454 5453 5453 5453 5452
5449 5448 5447 5447 5447 5447 5447 5447 5446 5446 5445 5445 5445 5445 5444 5444 5444 5444 5444 5444 5444 5444 5445 5444 5445 5445 5445 5445 5445 5444 5444 5444 5444 5444 5444 5443 5443 5443 5443 5443 5443 5442 5442 5441
5442 5441 5440 5440 5440 5439 5439 5439 5439 5438 5437 5437 5437 5436 5436 5435 5435 5435 5435 5435 5435 5435 5436 5436 5436 5436 5436 5435 5435 5435 5435 5434 5434 5434 5434 5433 5433 5433 5433 5433 5433 5432 5432 5432
5436 5435 5434 5433 5433 5432 5432 5431 5431 5430 5430 5429 5429 5428 5428 5427 5427 5427 5427 5427 5427 5427 5427 5427 5427 5427 5427 5427 5426 5426 5425 5425 5424 5424 5424 5424 5424 5424 5424 5424 5424 5423 5423 5423
5430 5429 5427 5427 5425 5425 5424 5424 5423 5423 5422 5422 5421 5420 5420 5419 5419 5419 5419 5419 5419 5418 5419 5418 5418 5418 5418 5418 5417 5417 5416 5416 5415 5415 5415 5415 5415 5415 5415 5415 5415 5415 5415 5415
5424 5422 5421 5420 5419 5418 5417 5416 5416 5415 5415 5414 5414 5413 5413 5412 5411 5411 5411 5411 5411 5411 5410 5410 5410 5409 5409 5409 5408 5408 5407 5407 5407 5407 5407 5407 5407 5407 5407 5407 5407 5407 5407 5407
5418 5416 5415 5414 5413 5412 5411 5410 5409 5409 5408 5407 5407 5406 5405 5405 5404 5404 5404 5403 5403 5403 5402 5402 5401 5401 5400 5400 5400 5399 5399 5399 5399 5399 5399 5399 5399 5400 5400 5400 5400 5400 5399 5399
5412 5410 5409 5408 5406 5405 5404 5404 5403 5402 5402 5401 5400 5399 5399 5398 5398 5397 5397 5397 5396 5395 5394 5394 5393 5393 5392 5392 5391 5391 5391 5391 5392 5392 5392 5392 5392 5392 5392 5392 5392 5392 5392 5391
5406 5404 5403 5401 5400 5399 5398 5397 5397 5396 5395 5395 5394 5393 5393 5392 5391 5391 5390 5390 5389 5388 5387 5387 5386 5385 5385 5384 5384 5384 5384 5384 5384 5385 5385 5385 5385 5385 5385 5385 5385 5385 5384 5384
5399 5398 5396 5395 5394 5393 5392 5391 5391 5390 5389 5389 5388 5387 5387 5386 5385 5384 5384 5383 5382 5381 5380 5380 5379 5378 5378 5378 5377 5377 5377 5378 5378 5378 5378 5378 5378 5378 5378 5378 5378 5377 5377 5377